GFSSW_700_temp_321.txt.gz
Temp
5 6 6 6 6 7 7 7 7 7 7 7 7 7 7 8 8 8 8 8 8 8 8 8 9 9 9 9 9 8 8 8 7 7 7 7 7 6 6 6 6 6 6 6 6
6 6 6 6 6 6 6 6 7 7 7 7 7 7 7 8 8 8 8 8 8 8 8 8 8 9 9 9 8 8 8 7 7 7 7 7 7 6 6 6 6 6 6 6 6
5 5 5 6 6 6 6 6 6 6 6 7 7 7 7 8 8 8 8 8 8 8 8 8 8 8 8 8 8 8 8 8 7 7 7 7 7 7 7 6 6 6 5 5 5
5 5 5 5 5 5 5 5 5 6 6 6 6 6 7 7 7 7 8 8 8 8 8 7 8 8 8 8 7 7 8 8 7 7 7 7 6 7 7 7 6 6 5 5 5
5 5 5 5 5 5 5 5 5 5 6 6 6 6 6 7 7 7 7 7 7 7 7 7 7 7 8 8 7 7 7 7 7 7 6 7 6 6 6 6 6 6 6 5 5
5 5 5 5 5 6 6 6 6 6 6 6 6 6 6 6 6 6 7 7 7 7 6 6 6 7 7 7 6 7 7 7 6 6 6 6 6 6 6 5 5 5 5 5 5
4 5 5 5 5 5 6 6 6 6 6 6 6 6 6 7 7 6 6 6 6 6 6 6 6 6 6 6 6 6 5 6 6 6 6 5 5 6 6 5 5 5 5 5 4
4 5 5 5 5 5 5 5 5 5 6 6 6 6 7 7 7 7 7 6 6 6 6 6 6 6 5 5 5 5 5 5 6 5 5 5 5 5 5 5 5 4 4 4 4
4 4 4 4 4 5 5 5 5 5 5 6 6 7 7 7 7 6 6 6 6 6 6 6 5 5 5 5 4 5 5 5 4 4 4 4 4 4 4 4 4 3 3 4 3
3 3 3 4 4 4 4 4 5 5 5 5 6 6 6 6 6 6 6 6 5 5 5 5 5 5 4 4 4 5 4 3 3 3 3 4 4 3 3 2 2 2 3 3 3
2 2 3 3 3 4 4 4 4 5 5 5 5 5 6 6 6 6 6 6 5 5 4 4 4 4 4 4 4 3 3 3 3 2 2 3 3 3 2 1 2 2 2 2 1
2 2 2 2 2 3 3 3 4 4 4 4 5 5 5 6 5 6 5 5 4 4 3 3 3 3 3 3 3 2 2 2 2 2 2 2 2 3 2 2 1 0 0 1 2
2 2 2 2 2 2 2 2 2 2 2 3 4 4 4 4 4 4 4 3 3 3 3 3 3 3 2 2 2 1 1 1 1 1 -0 -1 2 3 3 3 2 1 1 1 1
1 1 1 1 1 1 1 1 1 1 2 2 2 2 2 2 2 3 2 3 3 3 3 2 2 2 2 1 1 0 0 -0 -1 -2 -3 -3 -3 -0 0 1 1 0 0 -1 -2
1 1 1 1 1 1 1 0 0 1 -2 1 1 1 1 1 2 1 1 1 2 1 2 1 1 1 1 0 -0 -1 -2 -2 -3 -4 -5 -3 -5 2 -1 -0 -1 -1 -2 -3 -4
0 0 0 0 0 0 -0 -1 -1 -0 -1 1 1 1 1 0 0 1 1 1 0 1 1 1 0 -1 -1 -2 -2 -3 -4 -4 -5 -6 -10 -4 -3 0 -1 -2 -3 -3 -4 -5 -6
0 -1 -0 -1 -1 -1 -1 -2 -2 -1 1 0 0 0 0 0 -0 0 0 0 0 0 -0 -1 -1 -1 -2 -3 -3 -4 -5 -5 -9 -12 -8 -5 -6 -2 -3 -3 -4 -5 -6 -6 -6
-1 -1 -1 -1 -1 -2 -2 -3 -2 -0 1 1 0 -0 -1 -0 -0 -0 -1 -0 -0 -1 -2 -2 -2 -1 -2 -2 -3 -4 -5 -3 -6 -10 -9 -6 -6 -3 -4 -5 -6 -7 -7 -8 -9
-1 -1 -2 -2 -3 -2 -3 -3 -2 -1 -1 -1 -1 -1 -2 -2 -2 -2 -1 -1 -1 -2 -3 -4 -3 -3 -3 -4 -5 -6 -7 -6 -6 -8 -10 -6 -5 -5 -6 -8 -8 -8 -9 -10 -11
-2 -2 -2 -2 -2 -3 -3 -3 -2 -1 -2 -2 -2 -2 -3 -2 -2 -3 -3 -3 -2 -2 -3 -3 -4 -5 -6 -7 -7 -7 -7 -8 -8 -11 -15 -11 -8 -5 -8 -9 -9 -10 -12 -12 -13
-3 -2 -2 -2 -2 -3 -3 -3 -2 -2 -3 -3 -3 -3 -3 -4 -4 -4 -4 -4 -4 -4 -4 -4 -5 -7 -8 -8 -7 -8 -9 -10 -9 -9 -15 -16 -9 -9 -9 -10 -11 -12 -12 -13 -14
-3 -3 -3 -3 -3 -2 -3 -2 -2 -3 -3 -3 -4 -4 -5 -5 -6 -5 -5 -6 -5 -6 -6 -6 -7 -8 -8 -8 -9 -9 -9 -10 -10 -11 -11 -11 -10 -10 -10 -11 -11 -12 -13 -13 -14
-3 -3 -3 -4 -3 -3 -3 -4 -3 -4 -4 -4 -4 -4 -4 -5 -7 -7 -7 -7 -7 -8 -9 -9 -9 -9 -10 -10 -11 -11 -11 -11 -11 -11 -12 -14 -12 -11 -12 -12 -13 -13 -13 -15 -15
-3 -3 -3 -3 -3 -3 -3 -3 -4 -4 -4 -4 -4 -5 -5 -7 -8 -9 -9 -9 -9 -10 -11 -12 -12 -10 -9 -9 -10 -11 -11 -12 -13 -13 -13 -13 -13 -13 -13 -13 -14 -15 -16 -16 -16
-3 -4 -3 -3 -3 -3 -3 -3 -4 -4 -4 -4 -4 -4 -6 -7 -8 -9 -9 -10 -10 -11 -12 -13 -13 -12 -12 -12 -12 -12 -12 -13 -14 -14 -15 -14 -15 -15 -15 -15 -16 -16 -17 -17 -17
-3 -3 -3 -4 -4 -3 -3 -4 -4 -4 -4 -4 -5 -6 -7 -8 -9 -9 -10 -10 -11 -13 -14 -14 -14 -14 -14 -14 -14 -14 -15 -15 -15 -15 -15 -16 -16 -16 -16 -16 -17 -17 -18 -18 -18
-3 -3 -4 -3 -4 -4 -4 -4 -4 -5 -6 -6 -7 -9 -9 -10 -10 -11 -11 -12 -12 -13 -13 -14 -15 -15 -15 -15 -16 -16 -16 -16 -16 -16 -16 -17 -17 -17 -17 -18 -18 -18 -18 -19 -19

GFSSW_700_temp_324.txt.gz
Temp
5 6 6 6 7 7 7 7 7 7 7 7 7 7 8 8 7 8 8 8 8 8 9 9 8 8 8 8 8 8 8 7 7 7 7 7 6 6 7 7 7 6 6 6 6
5 6 6 6 6 6 6 6 7 7 7 7 7 8 8 8 8 8 8 8 8 9 9 9 8 8 8 8 8 8 8 8 8 8 8 7 6 6 6 6 6 6 6 6 6
5 5 6 6 6 6 6 6 6 6 7 7 7 7 7 7 7 8 8 8 8 8 8 8 8 8 8 8 8 8 8 7 7 7 7 7 7 6 6 6 6 6 5 5 5
5 5 5 6 6 6 6 6 6 6 6 6 6 7 7 7 7 7 8 8 8 8 8 8 8 8 8 8 8 8 8 7 7 7 7 7 7 7 7 6 6 5 5 5 5
5 5 5 5 5 6 5 5 5 6 6 6 6 6 6 6 7 7 7 7 7 8 8 8 7 7 8 8 7 7 7 7 6 6 7 6 7 7 7 7 6 6 5 5 5
5 5 5 5 5 5 6 6 6 6 6 6 6 6 6 6 7 7 7 7 7 7 7 7 7 7 7 7 7 7 7 7 6 6 6 6 6 6 7 6 6 6 5 5 5
4 4 4 5 5 5 5 5 6 6 6 6 6 6 7 7 7 7 7 7 7 7 7 7 6 6 6 6 6 6 6 6 6 6 5 5 6 7 6 6 5 5 5 5 5
3 4 4 4 5 5 5 5 5 5 6 6 6 6 6 7 7 7 7 7 7 7 6 6 6 6 6 6 5 5 5 5 6 6 5 5 6 6 5 5 5 5 4 4 4
3 3 3 4 4 4 5 5 5 5 5 5 6 6 6 6 6 6 6 6 6 6 6 6 6 6 5 5 5 4 4 5 5 5 4 4 5 5 5 4 4 4 4 3 3
3 3 3 3 3 4 4 4 4 4 5 5 5 6 5 6 6 6 6 6 6 6 6 5 5 5 5 5 4 5 5 4 4 4 4 4 4 3 3 4 3 3 4 3 3
3 2 3 3 3 3 3 3 3 4 4 4 5 5 5 5 5 6 6 6 5 5 5 5 5 5 5 4 4 3 3 3 3 3 3 3 3 3 3 3 3 3 3 2 2
2 3 3 3 3 3 3 3 3 3 4 4 4 4 5 5 5 5 5 5 5 4 4 4 4 4 3 3 3 3 3 3 3 2 2 2 3 3 3 3 3 2 2 1 1
2 2 2 2 2 2 2 2 2 2 2 3 4 4 4 4 4 4 4 4 3 2 2 2 3 3 3 3 2 2 2 2 2 2 1 1 3 3 4 4 3 3 2 1 0
1 1 1 2 2 2 2 2 2 2 2 2 2 3 3 2 2 2 2 2 1 2 2 2 2 2 2 2 2 1 1 1 0 -0 -1 -1 -2 2 2 2 2 2 2 1 -0
0 0 1 1 1 1 1 2 2 2 -2 2 2 2 2 2 2 1 1 1 1 1 1 2 2 1 1 1 1 1 0 -0 -1 -2 -3 -3 -3 3 1 1 1 1 0 -1 -2
-0 -0 -0 0 0 0 0 1 1 1 -1 1 1 2 2 2 2 1 1 1 1 1 1 1 1 0 0 0 -0 -1 -1 -2 -3 -4 -7 -3 -3 3 -0 0 -1 -1 -2 -2 -4
-1 -0 -1 -1 -1 -1 -1 -1 -1 0 1 1 1 1 0 1 1 1 0 0 0 -0 0 -0 -0 -0 -0 -1 -2 -2 -3 -5 -6 -10 -7 -5 -6 0 -1 -2 -2 -3 -4 -5 -6
-2 -1 -1 -1 -1 -2 -2 -2 -2 1 1 1 0 -0 -1 -1 -0 -0 0 0 0 -0 -1 -1 -1 -1 -1 -2 -2 -3 -5 -4 -7 -8 -9 -7 -6 -2 -3 -3 -4 -6 -6 -7 -8
-1 -2 -2 -2 -2 -2 -2 -3 -2 -1 -1 -1 -2 -2 -2 -1 -1 -1 -1 -1 -1 -1 -2 -3 -4 -3 -3 -3 -4 -6 -6 -5 -5 -7 -9 -5 -4 -3 -4 -5 -6 -7 -8 -9 -10
-2 -2 -2 -2 -3 -2 -3 -3 -2 -1 -2 -2 -3 -2 -2 -2 -2 -2 -2 -2 -2 -2 -3 -4 -5 -5 -5 -5 -6 -6 -6 -7 -7 -10 -11 -10 -8 -4 -5 -7 -8 -9 -10 -11 -12
-2 -2 -2 -3 -3 -3 -3 -3 -2 -2 -2 -3 -3 -3 -3 -3 -3 -4 -4 -3 -3 -3 -3 -5 -7 -7 -8 -7 -6 -7 -8 -8 -8 -8 -11 -11 -8 -8 -7 -9 -9 -10 -11 -12 -13
-3 -3 -3 -3 -3 -3 -3 -3 -3 -3 -3 -4 -4 -4 -4 -4 -4 -5 -5 -4 -4 -4 -5 -6 -7 -8 -8 -8 -8 -8 -8 -8 -8 -10 -10 -12 -10 -10 -10 -9 -10 -11 -12 -12 -13
-2 -3 -3 -3 -4 -3 -3 -2 -3 -3 -4 -4 -4 -4 -4 -4 -5 -5 -5 -5 -6 -6 -6 -7 -9 -10 -9 -9 -10 -10 -10 -10 -10 -10 -10 -12 -11 -11 -11 -11 -11 -12 -12 -13 -13
-2 -3 -3 -3 -3 -3 -3 -3 -3 -4 -4 -4 -4 -4 -4 -4 -6 -7 -7 -7 -8 -8 -8 -9 -10 -9 -7 -9 -11 -11 -11 -12 -12 -12 -13 -12 -12 -12 -12 -12 -12 -13 -14 -14 -15
-2 -3 -3 -3 -3 -4 -4 -4 -4 -4 -4 -4 -4 -4 -4 -6 -7 -8 -8 -9 -10 -10 -11 -11 -11 -11 -11 -12 -12 -12 -13 -13 -13 -13 -13 -13 -13 -13 -14 -14 -14 -15 -16 -16 -17
-4 -3 -3 -2 -3 -4 -4 -4 -4 -4 -4 -4 -4 -5 -5 -5 -6 -7 -8 -9 -9 -10 -11 -12 -12 -13 -13 -13 -13 -14 -14 -14 -14 -14 -14 -15 -15 -15 -15 -16 -16 -17 -17 -18 -18
-3 -3 -3 -3 -3 -4 -3 -4 -4 -5 -5 -5 -5 -6 -7 -7 -8 -8 -9 -10 -11 -11 -12 -13 -14 -14 -14 -14 -15 -16 -15 -15 -15 -15 -16 -16 -17 -17 -17 -17 -17 -18 -19 -19 -19

GFSSW_700_temp_327.txt.gz
Temp
6 6 6 6 6 6 6 7 7 7 7 7 7 7 7 7 7 7 7 7 8 8 8 8 8 8 8 8 8 8 8 8 8 7 7 7 7 7 7 6 6 6 6 6 5
6 6 6 6 6 6 6 6 6 6 7 7 7 7 7 7 7 7 7 8 8 8 8 8 8 8 8 8 8 7 8 7 7 7 7 7 7 7 7 6 6 6 6 5 5
5 6 6 6 6 6 6 6 6 6 6 7 7 7 7 7 7 8 8 8 8 8 8 8 8 8 8 8 8 8 8 8 7 7 7 7 6 6 6 6 6 5 5 5 5
5 5 6 5 6 5 6 6 6 6 6 6 6 7 7 7 7 7 7 7 8 8 8 8 8 8 8 8 8 8 8 7 7 7 7 6 6 6 7 6 6 6 5 5 5
5 5 5 5 5 6 6 6 5 5 5 6 6 6 6 6 7 7 7 7 7 7 8 8 8 8 8 7 7 7 7 7 7 7 6 6 6 6 6 6 6 6 5 5 5
4 5 5 5 5 5 6 5 6 6 6 6 6 6 6 6 6 6 6 7 7 7 7 7 7 7 7 7 7 7 7 6 6 6 6 6 6 6 6 6 6 5 5 5 4
4 4 4 4 5 5 5 5 6 5 5 6 6 6 6 6 6 6 6 6 7 7 7 7 7 7 7 6 6 6 6 6 6 6 6 6 5 6 6 6 5 5 5 4 4
3 4 4 4 4 5 5 5 5 5 5 5 6 6 6 6 6 6 6 6 7 7 7 7 6 6 6 6 6 6 6 5 6 5 5 5 6 6 5 5 5 4 4 4 4
3 3 3 4 4 4 4 4 5 5 5 5 5 5 6 6 6 6 6 6 6 6 6 6 6 6 6 6 5 5 5 6 5 5 5 5 5 5 5 5 4 4 4 4 3
3 2 3 3 3 3 4 4 4 4 5 5 5 5 5 5 5 5 6 6 6 6 6 6 5 5 6 5 5 5 5 5 5 5 5 4 5 4 4 4 4 3 3 3 3
2 2 2 3 3 3 3 3 3 4 4 4 4 4 5 5 5 5 5 5 5 5 5 4 4 5 4 4 4 4 4 4 4 3 3 4 4 4 4 4 4 4 3 3 2
2 2 2 2 2 3 3 3 3 3 4 4 4 4 5 5 4 4 4 4 4 4 4 3 4 3 3 3 3 3 2 2 2 2 2 3 4 3 3 4 4 4 3 3 2
1 2 2 2 2 2 2 2 2 2 2 4 4 4 4 4 4 3 4 4 3 3 3 2 2 2 2 2 2 2 2 2 1 1 1 1 3 4 4 4 4 4 3 3 3
1 1 1 1 1 1 1 1 2 2 2 3 3 3 3 3 3 3 3 2 2 2 1 1 1 2 1 1 1 1 1 1 1 0 -0 -0 -2 2 3 3 3 3 3 3 2
0 0 0 0 0 0 1 1 1 1 -3 2 2 2 2 2 2 2 2 2 1 1 1 2 1 1 1 1 1 -0 0 -0 -0 -1 -1 -1 -2 4 1 1 2 2 2 1 -0
-1 -1 -0 -0 -0 -0 -0 0 0 1 -1 2 1 1 1 1 1 1 1 1 1 1 1 1 1 1 1 1 0 0 -1 -1 -2 -3 -7 -3 -2 2 0 1 0 1 0 0 -1
-1 -1 -1 -1 -1 -1 -1 -1 -1 -0 1 1 1 1 0 1 1 0 0 0 0 -0 0 0 0 -0 -0 -0 -1 -1 -2 -3 -5 -8 -7 -5 -5 -0 -2 -1 -1 -1 -2 -2 -3
-1 -1 -2 -1 -1 -2 -2 -2 -2 0 1 1 -0 -0 -1 -0 -0 -0 -0 -0 -0 -0 -1 -1 -1 -0 -1 -1 -2 -2 -3 -4 -6 -9 -8 -7 -6 -1 -1 -2 -2 -3 -4 -5 -6
-2 -2 -2 -2 -2 -2 -3 -3 -2 -1 -0 -1 -1 -1 -1 -0 -1 -1 -1 -1 -1 -1 -1 -1 -2 -2 -2 -2 -3 -5 -5 -5 -7 -9 -10 -6 -4 -3 -3 -3 -4 -5 -6 -7 -9
-2 -2 -2 -2 -2 -2 -3 -2 -2 -1 -1 -1 -2 -2 -2 -2 -2 -2 -2 -2 -1 -1 -1 -2 -3 -4 -4 -4 -4 -5 -6 -8 -9 -10 -11 -9 -7 -4 -5 -6 -6 -7 -8 -10 -10
-3 -3 -3 -3 -2 -3 -3 -3 -2 -2 -2 -2 -2 -3 -3 -3 -3 -3 -3 -3 -3 -3 -2 -2 -4 -5 -6 -6 -5 -6 -7 -8 -9 -9 -10 -10 -7 -7 -7 -8 -9 -9 -10 -11 -11
-4 -4 -3 -3 -3 -3 -3 -3 -3 -3 -3 -3 -3 -3 -3 -4 -4 -5 -4 -4 -4 -4 -5 -5 -6 -7 -7 -7 -7 -7 -7 -7 -9 -11 -11 -12 -10 -9 -9 -9 -8 -9 -10 -11 -12
-3 -3 -3 -3 -3 -3 -3 -3 -4 -3 -3 -4 -4 -4 -4 -4 -5 -4 -5 -4 -5 -5 -7 -7 -7 -7 -8 -8 -8 -9 -9 -9 -9 -9 -11 -12 -10 -10 -10 -10 -10 -11 -11 -12 -13
-3 -3 -3 -3 -3 -3 -3 -3 -3 -3 -3 -3 -4 -4 -4 -4 -5 -5 -5 -6 -6 -6 -7 -9 -9 -8 -6 -7 -9 -10 -8 -10 -11 -11 -11 -11 -11 -11 -12 -13 -13 -13 -13 -14 -14
-3 -3 -3 -3 -2 -3 -3 -3 -3 -3 -3 -4 -4 -3 -4 -4 -4 -5 -6 -7 -8 -9 -9 -10 -10 -10 -10 -10 -10 -10 -11 -11 -12 -12 -13 -11 -12 -12 -13 -14 -14 -15 -15 -15 -16
-3 -3 -3 -3 -3 -4 -3 -3 -4 -4 -4 -4 -4 -4 -4 -4 -5 -5 -6 -7 -9 -10 -11 -11 -11 -11 -11 -11 -12 -12 -12 -13 -13 -13 -14 -14 -14 -14 -14 -15 -15 -16 -17 -17 -18
-3 -3 -3 -3 -3 -4 -3 -3 -3 -4 -4 -4 -5 -5 -5 -6 -6 -7 -8 -9 -10 -10 -11 -11 -12 -13 -13 -14 -14 -14 -13 -13 -14 -14 -15 -15 -14 -16 -16 -17 -17 -18 -18 -18 -19

GFSSW_700_temp_333.txt.gz
Temp
6 6 6 6 6 6 6 6 6 6 7 7 7 7 7 7 7 7 7 7 7 7 7 7 7 7 7 7 7 7 7 8 8 8 9 8 7 7 7 7 6 6 6 6 6
5 5 6 6 6 6 6 6 6 6 6 6 7 7 6 7 7 7 7 7 7 7 7 7 7 7 7 7 7 7 7 8 8 8 8 8 7 7 7 7 6 6 6 6 6
5 5 5 5 6 6 6 6 6 6 6 6 6 6 6 6 7 7 7 7 7 7 7 7 7 7 7 7 7 7 7 7 7 8 7 7 7 7 7 6 6 6 6 6 6
4 5 5 5 5 6 6 6 6 6 6 6 5 6 6 6 6 7 7 7 7 7 7 7 7 7 7 7 7 7 7 7 7 7 7 7 6 7 6 7 6 6 6 5 5
4 4 4 5 5 5 5 6 6 6 6 6 6 6 6 6 6 6 6 6 6 7 7 7 7 7 7 7 7 7 7 7 7 7 7 6 6 6 6 6 6 5 5 5 5
4 4 4 4 4 5 5 5 5 5 6 6 6 6 6 6 6 6 6 6 6 6 6 7 6 6 6 7 6 7 7 7 7 7 6 6 6 6 6 6 6 6 5 5 5
3 4 4 4 4 4 4 5 5 5 5 5 6 6 6 6 6 6 6 6 6 6 6 6 6 6 6 6 6 6 6 6 6 6 6 5 5 6 6 6 5 6 5 5 5
3 3 3 4 4 4 4 4 4 4 5 5 5 5 5 6 6 6 6 6 6 6 5 5 5 5 5 5 5 5 5 5 6 6 5 5 6 6 6 5 5 5 5 5 5
3 3 3 3 3 3 4 4 4 4 4 4 5 5 5 5 5 6 6 5 5 5 5 5 5 5 5 5 4 4 5 5 5 5 5 5 5 6 5 5 5 5 4 4 4
2 2 2 2 2 3 3 3 4 4 4 4 4 5 5 5 5 5 4 4 5 4 5 5 5 5 5 4 4 5 4 5 5 5 5 5 5 5 5 5 4 4 4 4 3
2 2 2 2 2 2 2 3 3 3 3 3 4 4 4 4 4 4 4 4 5 5 4 4 4 5 4 4 4 4 4 3 4 3 3 4 4 4 4 4 4 4 4 3 3
1 1 1 1 2 1 1 2 2 2 3 3 4 4 5 5 4 4 4 4 4 4 3 3 4 3 3 3 3 3 3 3 2 2 2 3 3 3 3 3 3 2 2 3 3
0 1 1 1 0 1 0 0 0 1 1 3 4 4 4 4 3 4 3 3 3 3 3 2 3 3 3 2 2 2 2 2 2 2 1 1 2 3 3 3 3 3 3 3 3
0 0 0 -0 -0 -0 0 -0 -0 -0 1 2 3 3 2 2 2 2 2 2 2 2 2 2 2 2 2 1 1 1 1 1 1 0 0 0 -0 2 3 3 3 3 3 3 2
-2 -1 -1 -1 -1 -1 -1 -1 -1 -1 -4 2 2 2 2 2 2 2 2 2 2 2 2 2 1 1 1 1 1 0 0 0 -0 -0 -1 -1 -1 2 2 3 3 3 3 3 2
-1 -2 -2 -1 -1 -1 -1 -1 -2 -2 -3 2 1 1 1 1 1 1 1 1 1 1 1 1 1 1 1 0 0 -0 -1 -1 -1 -2 -5 -1 -1 1 1 1 1 1 1 1 0
-2 -1 -2 -2 -2 -2 -1 -1 -2 -3 1 1 1 1 1 1 1 1 1 1 1 0 0 0 0 0 0 -0 -1 -1 -2 -3 -5 -7 -5 -4 -4 0 0 1 0 -0 0 1 0
-2 -2 -2 -2 -2 -2 -2 -2 -3 -1 0 0 0 -0 -0 -0 0 0 0 1 0 -0 -1 -1 -1 -0 -0 -1 -1 -2 -2 -2 -5 -6 -6 -6 -5 1 -0 0 -0 -1 -1 -1 -1
-2 -2 -2 -2 -2 -2 -3 -3 -2 -2 -1 -1 -1 -1 -1 -1 -1 -1 -1 -1 -0 -0 -1 -1 -1 -1 -1 -1 -2 -4 -4 -3 -3 -8 -8 -4 -2 -1 -1 -2 -2 -2 -3 -3 -3
-3 -3 -3 -3 -3 -3 -3 -3 -3 -2 -3 -2 -2 -2 -2 -2 -2 -1 -1 -1 -0 -1 -1 -2 -2 -3 -2 -3 -3 -3 -4 -5 -5 -6 -9 -8 -6 -1 -2 -2 -2 -3 -4 -4 -5
-3 -3 -3 -3 -3 -2 -3 -3 -3 -3 -3 -3 -3 -3 -4 -3 -3 -3 -2 -2 -2 -2 -2 -2 -3 -5 -5 -4 -3 -4 -5 -6 -6 -7 -8 -9 -4 -3 -4 -4 -4 -5 -5 -6 -6
-4 -3 -3 -3 -3 -3 -3 -3 -2 -2 -3 -4 -3 -3 -4 -4 -4 -4 -4 -3 -3 -3 -4 -4 -5 -5 -5 -5 -5 -5 -5 -5 -6 -8 -8 -11 -6 -5 -5 -6 -7 -7 -7 -8 -8
-4 -4 -3 -3 -4 -3 -3 -3 -3 -3 -3 -3 -3 -3 -3 -4 -4 -4 -3 -3 -3 -4 -5 -5 -6 -6 -7 -6 -7 -7 -6 -6 -6 -6 -8 -9 -6 -6 -7 -7 -7 -8 -9 -10 -10
-4 -4 -4 -4 -4 -4 -3 -3 -3 -3 -4 -4 -3 -4 -4 -4 -4 -4 -4 -4 -4 -4 -5 -6 -6 -5 -4 -4 -5 -6 -5 -6 -8 -10 -10 -8 -7 -7 -7 -8 -9 -9 -10 -11 -11
-4 -4 -4 -4 -3 -3 -4 -4 -4 -4 -4 -4 -4 -4 -3 -4 -4 -4 -4 -5 -5 -5 -6 -7 -7 -6 -6 -6 -7 -7 -8 -9 -9 -8 -10 -8 -9 -9 -9 -10 -11 -12 -12 -13 -13
-5 -4 -4 -4 -4 -4 -4 -4 -4 -4 -4 -4 -3 -3 -3 -3 -3 -4 -4 -5 -5 -5 -7 -7 -8 -8 -8 -8 -9 -8 -9 -10 -10 -11 -11 -11 -11 -11 -11 -12 -12 -13 -13 -14 -14
-5 -4 -5 -4 -4 -4 -4 -4 -4 -4 -5 -4 -4 -4 -4 -4 -4 -4 -5 -6 -6 -6 -7 -8 -9 -10 -10 -11 -11 -11 -9 -10 -10 -11 -12 -13 -12 -13 -13 -13 -14 -14 -15 -15 -16